Location: Casilda
(33.0440°S, 61.1680°W)
Time: 18:18:40
(UTC-03:00)

ISS - Pass Details

Date: 24 November 2020
Orbit: 418 x 420 km, 51.6° (Epoch: 04 December)

Event Time Altitude Azimuth Distance (km) Brightness Sun altitude
Exits shadow 03:58:26 10° 41° (NE) 1,499 -1.0 -20.2°
Maximum altitude 03:59:15 11° 55° (NE) 1,461 -0.9 -20.1°
Drops below altitude 10° 04:00:09 10° 70° (ENE) 1,513 -0.6 -19.9°
Sets 04:03:41 0° 109° (ESE) 2,390 1.3 -19.4°
